Weather reports worldwide

Advertisment
Passo Dei Giovi, Italy (16119): temperature & dewpoint: 08.12.2019 06:00:00 - 14.12.2019 06:00:00 (CET)Passo Dei Giovi, Italy (16119): wind speed: 08.12.2019 06:00:00 - 14.12.2019 06:00:00 (CET)Passo Dei Giovi, Italy (16119): wind direction: 08.12.2019 06:00:00 - 14.12.2019 06:00:00 (CET)Passo Dei Giovi, Italy (16119): reduced air pressure: 08.12.2019 06:00:00 - 14.12.2019 06:00:00 (CET)Passo Dei Giovi, Italy (16119): visibility: 08.12.2019 06:00:00 - 14.12.2019 06:00:00 (CET)
Date & Time tt [°C] td [°C] ff [km/h] ff [kn] dd ppp [hPa] vv [km]
14.12.2019 06:00:00 - - - - - - -
14.12.2019 05:00:00 - - - - - - -
14.12.2019 04:00:00 - - - - - - -
14.12.2019 03:00:00 - - - - - - -
14.12.2019 02:00:00 - - - - - - -
14.12.2019 01:00:00 - - - - - - -
14.12.2019 00:00:00 - - - - - - -
13.12.2019 23:00:00 - - - - - - -
13.12.2019 22:00:00 - - - - - - -
13.12.2019 21:00:00 - - - - - - -
13.12.2019 20:00:00 - - - - - - -
13.12.2019 19:00:00 -1,0 -1,7 11 6 N 993,0 12
13.12.2019 18:00:00 - - - - - - -
13.12.2019 17:00:00 -1,0 -2,0 - - - - 7
13.12.2019 16:00:00 -1,0 -1,4 13 7 N 988,8 0,8
13.12.2019 15:00:00 -1,0 -2,0 - - - - 0,6
13.12.2019 14:00:00 -1,0 -2,0 - - - - 0,6
13.12.2019 13:00:00 -0,6 -1,3 21 11 N 988,3 6
13.12.2019 12:00:00 - - - - - - -
13.12.2019 11:00:00 - - - - - - -
13.12.2019 10:00:00 -0,8 -1,4 21 11 N 992,1 0,8
13.12.2019 09:00:00 -1,0 -1,0 - - - - 0,8
13.12.2019 08:00:00 -1,0 -1,0 - - - - 3,0
13.12.2019 07:00:00 -0,6 -1,3 16 9 N 994,8 3,0
13.12.2019 06:00:00 - - - - - - -
13.12.2019 05:00:00 - - - - - - -
13.12.2019 04:00:00 - - - - - - -
13.12.2019 03:00:00 - - - - - - -
13.12.2019 02:00:00 - - - - - - -
13.12.2019 01:00:00 - - - - - - -
13.12.2019 00:00:00 - - - - - - -
12.12.2019 23:00:00 - - - - - - -
12.12.2019 22:00:00 - - - - - - -
12.12.2019 21:00:00 - - - - - - -
12.12.2019 20:00:00 - - - - - - -
12.12.2019 19:00:00 -0,6 -1,2 15 8 N 1005,4 7
12.12.2019 18:00:00 0,0 -1,0 - - - - 8
12.12.2019 17:00:00 0,0 -1,0 - - - - 7
12.12.2019 16:00:00 0,2 -0,4 18 10 N 1005,9 5
12.12.2019 15:00:00 0,0 0,0 - - - - 6
12.12.2019 14:00:00 0,0 0,0 - - - - 0,8
12.12.2019 13:00:00 0,2 -0,5 8 4 S 1006,4 6
12.12.2019 12:00:00 0,0 -1,0 - - - - 8
12.12.2019 11:00:00 0,0 -1,0 - - - - 8
12.12.2019 10:00:00 0,2 -0,5 18 10 N 1006,6 8
12.12.2019 09:00:00 0,0 -1,0 - - - - 10
12.12.2019 08:00:00 - - - - - - -
12.12.2019 07:00:00 0,2 -0,5 13 7 N 1005,2 3,0
12.12.2019 06:00:00 - - - - - - -
12.12.2019 05:00:00 - - - - - - -
12.12.2019 04:00:00 - - - - - - -
12.12.2019 03:00:00 - - - - - - -
12.12.2019 02:00:00 - - - - - - -
12.12.2019 01:00:00 - - - - - - -
12.12.2019 00:00:00 - - - - - - -
11.12.2019 23:00:00 - - - - - - -
11.12.2019 22:00:00 - - - - - - -
11.12.2019 21:00:00 - - - - - - -
11.12.2019 20:00:00 - - - - - - -
11.12.2019 19:00:00 2,4 -2,5 15 8 N 1012,3 10
11.12.2019 18:00:00 - - - - - - -
11.12.2019 17:00:00 - - - - - - -
11.12.2019 16:00:00 3,8 -3,7 15 8 N 1013,6 12
11.12.2019 15:00:00 5,0 -5,0 - - - - 10
11.12.2019 14:00:00 - - - - - - -
11.12.2019 13:00:00 5,4 -6,2 16 9 N 1015,7 12
11.12.2019 12:00:00 - - - - - - -
11.12.2019 11:00:00 - - - - - - -
11.12.2019 10:00:00 0,8 -4,6 8 4 N 1019,4 15
11.12.2019 09:00:00 -1,0 -4,0 - - - - 10
11.12.2019 08:00:00 - - - - - - -
11.12.2019 07:00:00 -2,6 -2,7 9 5 N 1020,9 10
11.12.2019 06:00:00 - - - - - - -
11.12.2019 05:00:00 - - - - - - -
11.12.2019 04:00:00 - - - - - - -
11.12.2019 03:00:00 - - - - - - -
11.12.2019 02:00:00 - - - - - - -
11.12.2019 01:00:00 - - - - - - -
11.12.2019 00:00:00 - - - - - - -
10.12.2019 23:00:00 - - - - - - -
10.12.2019 22:00:00 - - - - - - -
10.12.2019 21:00:00 - - - - - - -
10.12.2019 20:00:00 - - - - - - -
10.12.2019 19:00:00 4,4 -10,1 9 5 N 1020,6 15
10.12.2019 18:00:00 - - - - - - -
10.12.2019 17:00:00 - - - - - - -
10.12.2019 16:00:00 9,0 -14,1 9 5 N 1018,7 20
10.12.2019 15:00:00 - - - - - - -
10.12.2019 14:00:00 - - - - - - -
10.12.2019 13:00:00 8,8 -14,2 15 8 N 1018,1 20
10.12.2019 12:00:00 - - - - - - -
10.12.2019 11:00:00 - - - - - - -
10.12.2019 10:00:00 8,0 -11,9 28 15 N 1017,1 20
10.12.2019 09:00:00 - - - - - - -
10.12.2019 08:00:00 - - - - - - -
10.12.2019 07:00:00 5,2 -4,1 9 5 N 1015,6 15
10.12.2019 06:00:00 - - - - - - -
10.12.2019 05:00:00 - - - - - - -
10.12.2019 04:00:00 - - - - - - -
10.12.2019 03:00:00 - - - - - - -
10.12.2019 02:00:00 - - - - - - -
10.12.2019 01:00:00 - - - - - - -
10.12.2019 00:00:00 - - - - - - -
09.12.2019 23:00:00 - - - - - - -
09.12.2019 22:00:00 - - - - - - -
09.12.2019 21:00:00 - - - - - - -
09.12.2019 20:00:00 - - - - - - -
09.12.2019 19:00:00 3,4 2,5 9 5 N 1008,8 12
09.12.2019 18:00:00 - - - - - - -
09.12.2019 17:00:00 - - - - - - -
09.12.2019 16:00:00 7,6 2,3 8 4 N 1007,2 15
09.12.2019 15:00:00 8,0 2,0 - - - - 10
09.12.2019 14:00:00 9,0 0,0 - - - - 10
09.12.2019 13:00:00 8,4 3,8 9 5 N 1007,6 10
09.12.2019 12:00:00 7,0 5,0 - - - - 8
09.12.2019 11:00:00 7,0 5,0 - - - - 8
09.12.2019 10:00:00 5,4 3,4 16 9 N 1009,4 8
09.12.2019 09:00:00 5,0 3,0 - - - - 8
09.12.2019 08:00:00 5,0 2,0 - - - - 8
09.12.2019 07:00:00 6,2 4,0 11 6 N 1010,2 10
09.12.2019 06:00:00 - - - - - - -
09.12.2019 05:00:00 - - - - - - -
09.12.2019 04:00:00 - - - - - - -
09.12.2019 03:00:00 - - - - - - -
09.12.2019 02:00:00 - - - - - - -
09.12.2019 01:00:00 - - - - - - -
09.12.2019 00:00:00 - - - - - - -
08.12.2019 23:00:00 - - - - - - -
08.12.2019 22:00:00 - - - - - - -
08.12.2019 21:00:00 - - - - - - -
08.12.2019 20:00:00 - - - - - - -
08.12.2019 19:00:00 - - - - - - -
08.12.2019 18:00:00 - - - - - - -
08.12.2019 17:00:00 - - - - - - -
08.12.2019 16:00:00 - - - - - - -
08.12.2019 15:00:00 - - - - - - -
08.12.2019 14:00:00 - - - - - - -
08.12.2019 13:00:00 - - - - - - -
08.12.2019 12:00:00 - - - - - - -
08.12.2019 11:00:00 - - - - - - -
08.12.2019 10:00:00 - - - - - - -
08.12.2019 09:00:00 - - - - - - -
08.12.2019 08:00:00 - - - - - - -
08.12.2019 07:00:00 - - - - - - -
08.12.2019 06:00:00 - - - - - - -

tt = temperature
td = dewpoint
ff = wind speed
dd = wind direction
ppp = reduced air pressure
vv = visibility

Next stations